Temp
16 17 18 21 22 22 24 24 24 25 27 27 25 26 27 28 28 28 28 28 28 27 27 27 27 26 25 24 22 20 18 17 15 15 16 16 16 16 16 16 16 15 14 14
16 16 20 22 23 22 23 23 24 26 26 26 25 25 27 29 29 28 27 28 28 27 27 27 27 26 24 24 22 21 19 18 16 16 17 17 17 17 16 16 15 15 15 14
16 18 20 20 21 22 22 22 23 24 26 25 25 24 25 27 28 28 28 27 27 27 27 26 26 26 24 23 22 21 20 19 17 17 17 17 17 17 17 16 15 14 15 15
13 18 19 19 19 21 21 24 23 23 24 23 24 22 25 26 27 28 27 27 27 27 26 26 26 26 24 23 22 21 20 20 18 17 18 18 18 18 17 16 16 15 15 16
9 14 18 19 20 21 21 23 23 22 22 23 24 23 25 27 27 28 28 28 27 26 26 26 26 26 25 23 23 21 21 20 19 17 18 17 18 18 18 16 15 15 15 15
8 11 15 18 20 21 22 21 21 21 21 19 22 23 25 26 27 28 29 29 28 28 27 26 25 26 25 24 23 22 21 20 19 18 17 17 17 18 18 16 15 15 14 14
7 7 10 13 15 19 20 19 15 15 16 16 21 22 25 27 28 29 29 28 28 28 27 27 26 25 25 25 23 22 20 21 20 18 17 17 17 18 18 16 15 16 16 16
9 9 8 11 13 16 18 18 13 14 15 19 20 20 24 26 28 27 27 27 27 27 27 26 25 25 25 25 22 22 20 20 20 19 17 17 16 17 17 16 17 16 16 17
8 9 11 10 13 16 15 15 18 16 19 19 21 22 24 26 27 28 28 27 26 26 25 26 25 25 24 24 23 21 19 19 20 19 17 16 16 16 17 15 16 16 15 16
7 8 11 11 12 12 12 16 13 12 12 14 22 23 24 25 26 27 26 26 26 25 25 24 24 24 24 23 22 20 18 19 19 18 16 16 16 16 16 15 14 14 14 13
3 6 11 11 9 9 8 10 11 12 12 16 20 24 26 26 27 26 26 26 25 25 24 24 24 23 23 22 23 20 18 18 19 17 16 15 15 15 14 15 14 13 13 13
2 3 8 10 13 12 11 10 8 10 11 15 19 21 27 26 26 26 26 26 25 24 24 24 23 21 20 21 20 19 18 17 16 15 15 15 14 14 14 14 14 13 13 13
4 4 6 12 13 11 9 7 5 7 13 14 16 19 24 25 25 25 25 24 21 21 22 22 21 18 17 17 17 16 14 15 15 14 14 14 14 13 13 13 13 12 13 12
4 4 4 6 5 4 5 4 4 4 9 11 16 20 23 24 24 24 22 20 20 19 19 20 19 17 16 16 16 12 12 13 14 14 14 13 14 13 13 12 12 12 12 12
6 4 4 3 4 6 6 6 5 4 5 6 16 18 21 21 21 23 21 20 19 17 18 19 18 16 16 15 15 12 11 12 12 12 13 13 13 13 12 12 11 11 11 12
8 5 6 5 7 7 7 9 9 9 7 6 9 12 16 17 19 21 22 21 21 22 18 16 18 17 16 15 14 13 11 11 12 12 13 13 12 11 12 11 10 10 10 10
6 5 5 5 7 7 6 8 9 10 10 10 11 14 16 17 16 17 17 16 17 19 20 17 15 16 16 15 14 13 11 10 11 12 12 12 11 11 11 11 10 9 9 9
5 5 5 5 6 4 9 12 12 12 11 12 13 14 15 15 15 15 14 15 16 17 18 19 17 15 15 15 15 14 11 9 10 10 10 10 9 10 9 9 8 9 9 9
8 6 4 4 6 8 10 11 12 12 12 13 12 13 15 14 15 15 15 16 16 16 17 18 18 17 15 14 14 14 11 8 8 9 9 8 9 9 8 8 7 7 8 8
8 8 4 5 5 6 11 14 14 13 11 14 14 14 14 15 14 16 16 16 16 17 17 18 18 17 18 14 13 13 11 9 8 8 9 9 8 9 8 8 7 8 9 10
6 5 5 5 5 8 11 13 13 9 10 13 13 13 13 13 15 15 15 15 16 15 16 17 17 17 17 15 13 12 11 9 10 8 8 8 7 7 7 8 8 9 9 8
5 5 5 5 5 5 11 12 10 12 12 12 12 12 12 11 12 13 13 14 14 15 15 15 16 16 18 16 13 12 12 10 8 7 8 7 6 6 6 9 8 9 8 7
7 7 7 7 7 10 11 12 11 12 12 12 12 12 11 11 12 12 12 12 13 14 15 15 15 16 17 17 14 12 12 11 8 7 7 6 5 5 8 9 8 8 7 8
9 10 8 7 9 11 11 11 11 11 11 11 11 11 11 11 11 11 11 11 11 12 13 13 15 15 16 17 16 13 12 11 9 7 6 5 5 7 7 8 8 8 7 8
8 9 8 8 9 10 10 10 10 10 10 10 11 11 11 11 10 11 11 10 11 11 12 12 13 14 14 15 15 14 12 11 9 6 5 4 5 7 7 7 8 8 7 8
9 8 7 7 9 9 10 10 10 10 10 10 10 10 10 10 10 10 10 10 10 10 11 12 12 13 13 14 15 13 11 11 9 6 4 3 5 5 5 6 5 6 7 6
Height
1422 1428 1418 1402 1401 1407 1406 1410 1409 1407 1403 1405 1413 1412 1411 1412 1410 1411 1417 1418 1421 1424 1429 1434 1439 1445 1450 1455 1459 1463 1467 1471 1474 1477 1480 1486 1489 1495 1500 1504 1508 1511 1513 1516
1419 1413 1395 1395 1401 1405 1405 1406 1400 1396 1400 1404 1408 1408 1405 1400 1400 1404 1409 1411 1413 1418 1422 1425 1431 1437 1443 1447 1450 1456 1459 1463 1467 1472 1475 1481 1485 1490 1495 1498 1501 1505 1507 1511
1393 1377 1384 1399 1390 1395 1397 1398 1396 1397 1394 1398 1406 1408 1402 1396 1393 1396 1399 1403 1408 1412 1414 1420 1424 1428 1433 1438 1442 1446 1450 1455 1459 1465 1472 1477 1483 1487 1489 1492 1495 1498 1502 1505
1396 1379 1386 1389 1389 1391 1391 1381 1394 1396 1397 1401 1405 1410 1394 1387 1386 1387 1390 1395 1399 1403 1407 1411 1415 1419 1423 1426 1433 1437 1442 1448 1452 1457 1463 1468 1471 1474 1477 1482 1488 1492 1496 1500
1394 1383 1372 1372 1371 1379 1371 1383 1386 1397 1397 1397 1393 1395 1368 1374 1373 1369 1374 1379 1386 1393 1398 1402 1405 1409 1414 1418 1421 1428 1434 1440 1446 1449 1454 1458 1465 1470 1475 1479 1482 1486 1491 1497
1400 1394 1380 1372 1370 1370 1377 1386 1387 1393 1398 1407 1387 1388 1359 1365 1354 1356 1358 1363 1369 1375 1381 1389 1395 1399 1404 1407 1410 1417 1424 1429 1436 1441 1445 1451 1455 1462 1467 1472 1476 1480 1485 1490
1390 1390 1384 1381 1379 1371 1373 1385 1410 1417 1411 1402 1362 1392 1352 1339 1335 1342 1347 1354 1360 1364 1370 1375 1381 1386 1392 1397 1397 1405 1413 1420 1425 1430 1435 1444 1448 1456 1459 1463 1465 1470 1476 1482
1378 1377 1379 1373 1367 1361 1359 1373 1397 1398 1395 1365 1374 1382 1322 1341 1330 1338 1342 1349 1352 1356 1359 1365 1371 1377 1383 1387 1388 1394 1402 1410 1416 1421 1425 1434 1442 1448 1455 1454 1457 1464 1470 1476
1378 1370 1364 1368 1366 1361 1365 1366 1360 1377 1364 1368 1357 1354 1321 1331 1326 1333 1338 1342 1346 1350 1355 1355 1362 1368 1374 1380 1384 1387 1395 1401 1407 1412 1419 1425 1434 1440 1444 1446 1453 1459 1466 1472
1374 1370 1360 1358 1365 1359 1360 1361 1383 1387 1387 1382 1330 1326 1313 1326 1323 1325 1332 1336 1339 1342 1348 1353 1357 1361 1367 1372 1379 1384 1391 1396 1402 1408 1413 1418 1426 1434 1435 1440 1447 1453 1459 1465
1390 1373 1349 1354 1359 1360 1368 1365 1368 1372 1372 1352 1334 1310 1297 1306 1308 1316 1322 1330 1335 1338 1344 1348 1352 1356 1362 1368 1373 1377 1384 1391 1396 1402 1407 1413 1419 1425 1428 1435 1442 1446 1453 1459
1392 1389 1364 1348 1349 1354 1358 1364 1372 1367 1367 1349 1330 1323 1292 1299 1305 1312 1318 1321 1329 1333 1337 1343 1348 1352 1359 1363 1367 1373 1381 1386 1389 1392 1399 1407 1413 1417 1421 1428 1435 1441 1446 1455
1390 1388 1372 1341 1345 1350 1362 1371 1379 1368 1353 1351 1348 1321 1302 1308 1312 1315 1322 1328 1334 1336 1336 1339 1345 1351 1356 1359 1364 1370 1374 1376 1380 1386 1393 1400 1403 1409 1416 1423 1429 1435 1442 1449
1392 1392 1392 1372 1376 1386 1379 1384 1385 1385 1367 1357 1338 1314 1307 1309 1313 1318 1325 1334 1337 1338 1338 1341 1346 1349 1352 1356 1361 1363 1364 1369 1374 1380 1386 1393 1399 1405 1411 1417 1425 1432 1437 1442
1384 1389 1386 1387 1386 1381 1378 1373 1381 1386 1386 1382 1330 1323 1318 1314 1324 1322 1327 1334 1335 1339 1341 1341 1343 1346 1350 1354 1358 1359 1360 1364 1369 1376 1382 1388 1394 1399 1406 1413 1419 1426 1432 1438
1374 1381 1376 1374 1372 1370 1367 1364 1365 1369 1379 1377 1362 1347 1338 1331 1331 1329 1327 1330 1328 1329 1336 1342 1343 1343 1347 1351 1355 1358 1357 1360 1365 1371 1377 1383 1390 1396 1402 1408 1414 1422 1428 1435
1377 1379 1376 1367 1364 1367 1366 1354 1355 1356 1357 1358 1349 1336 1337 1333 1336 1339 1337 1336 1336 1330 1331 1335 1341 1343 1344 1348 1351 1353 1355 1358 1364 1369 1372 1377 1384 1390 1397 1404 1411 1418 1424 1430
1373 1377 1379 1367 1365 1368 1332 1337 1339 1341 1344 1344 1339 1336 1337 1338 1342 1340 1343 1339 1334 1332 1332 1333 1336 1336 1340 1346 1349 1352 1354 1356 1360 1364 1369 1374 1379 1386 1393 1399 1406 1413 1420 1425
1362 1369 1373 1370 1354 1341 1322 1329 1327 1327 1327 1333 1334 1334 1333 1337 1338 1335 1338 1334 1332 1332 1330 1329 1331 1334 1336 1341 1346 1348 1350 1353 1357 1360 1364 1370 1375 1381 1388 1396 1402 1409 1415 1420
1354 1357 1371 1363 1361 1346 1312 1313 1315 1322 1320 1322 1321 1320 1328 1333 1328 1326 1329 1329 1327 1323 1325 1327 1329 1332 1334 1336 1342 1345 1345 1349 1352 1356 1362 1366 1372 1377 1384 1391 1398 1404 1412 1419
1350 1353 1355 1351 1353 1335 1313 1315 1320 1328 1327 1323 1323 1322 1323 1324 1320 1323 1325 1324 1322 1321 1318 1321 1323 1324 1327 1328 1334 1340 1342 1341 1344 1353 1358 1364 1369 1376 1381 1386 1394 1400 1409 1416
1344 1345 1345 1349 1351 1346 1298 1316 1321 1317 1320 1319 1323 1322 1323 1324 1321 1321 1321 1318 1320 1319 1317 1318 1319 1319 1320 1320 1325 1332 1336 1340 1342 1349 1355 1359 1365 1372 1376 1382 1389 1398 1405 1411
1321 1325 1326 1327 1320 1310 1309 1312 1314 1315 1316 1315 1317 1318 1321 1320 1318 1318 1317 1318 1316 1314 1312 1311 1311 1311 1311 1314 1317 1325 1329 1335 1340 1345 1350 1356 1362 1367 1371 1377 1385 1393 1400 1406
1308 1314 1312 1321 1300 1301 1305 1310 1312 1313 1314 1311 1313 1313 1313 1312 1312 1311 1314 1313 1312 1309 1308 1308 1306 1305 1305 1307 1309 1316 1325 1330 1333 1339 1345 1347 1352 1359 1367 1372 1381 1387 1393 1398
1310 1306 1305 1303 1294 1304 1301 1304 1305 1305 1305 1304 1303 1303 1303 1304 1305 1305 1308 1309 1308 1305 1302 1302 1299 1298 1299 1301 1303 1309 1316 1322 1325 1333 1337 1343 1347 1352 1360 1366 1374 1382 1391 1394
1305 1303 1303 1298 1294 1297 1295 1294 1295 1295 1294 1295 1290 1293 1294 1295 1296 1296 1295 1296 1296 1294 1292 1292 1292 1291 1292 1294 1296 1300 1308 1314 1317 1322 1331 1333 1341 1347 1353 1358 1369 1380 1389 1397
Wind_Speed
37 22 25 38 36 28 27 29 29 26 24 23 27 28 25 26 23 18 27 29 31 33 35 32 30 29 27 27 30 32 31 31 31 33 34 31 29 25 24 22 23 25 26 27
25 28 37 35 31 32 32 31 31 24 19 23 20 27 24 26 25 29 28 28 29 30 31 32 33 31 31 31 33 34 34 34 35 32 32 30 28 25 24 24 25 27 28 27
32 43 39 30 36 34 32 32 30 27 21 20 17 24 28 26 30 33 35 32 33 32 30 30 32 34 34 35 36 39 39 36 38 35 30 27 24 24 25 27 26 29 28 30
26 37 34 32 35 31 33 35 29 29 23 21 24 22 27 30 29 27 35 38 39 38 38 35 36 37 36 40 41 43 41 38 39 39 34 35 35 33 33 31 29 28 30 29
16 30 39 33 42 38 38 25 28 26 22 25 25 22 27 26 30 33 33 44 45 44 44 42 42 42 40 38 42 44 43 41 40 41 40 41 37 33 28 27 28 30 30 28
18 27 25 34 30 33 33 23 23 23 20 20 33 27 30 25 34 28 29 40 42 45 46 45 46 46 45 41 44 43 45 43 44 44 45 41 43 35 32 31 31 33 32 35
11 22 16 26 29 28 27 16 9 11 12 17 34 22 29 10 31 38 30 30 34 35 37 38 39 43 44 44 45 46 46 45 46 46 47 43 42 37 36 34 41 40 38 37
8 7 17 12 23 36 33 29 8 16 19 27 24 15 40 34 27 6 6 14 17 23 32 37 38 39 39 38 36 45 42 46 46 48 49 48 43 40 34 41 40 37 40 37
5 6 5 20 19 22 33 25 33 10 15 21 21 37 42 28 29 33 25 27 31 37 30 29 34 34 37 38 32 36 38 44 45 48 47 47 43 39 38 41 37 37 37 37
7 12 12 16 18 13 9 27 23 12 8 9 19 32 24 25 29 24 19 18 27 25 29 28 28 30 31 34 32 32 33 37 41 44 44 46 44 40 41 41 36 35 39 39
8 2 7 14 11 11 4 6 5 9 6 13 18 23 21 25 15 17 21 23 23 20 19 23 17 14 20 26 32 31 30 32 37 41 44 43 44 43 41 38 38 39 40 38
5 5 4 10 13 19 17 9 8 7 8 11 13 15 12 3 6 6 5 9 10 8 15 18 21 15 15 20 22 24 28 31 37 43 47 46 43 46 45 44 43 42 40 34
3 3 6 6 11 13 2 1 9 8 7 22 13 11 9 14 8 7 6 4 6 3 8 12 11 14 17 20 23 28 33 39 42 45 44 47 50 48 47 44 46 42 38 35
5 2 7 8 8 7 4 8 6 6 2 5 19 24 8 5 10 11 6 6 6 6 8 9 11 13 16 19 24 28 34 39 40 42 45 49 44 47 44 47 45 40 38 36
9 7 7 11 13 13 15 13 5 3 5 6 25 26 23 3 13 4 13 11 11 7 4 7 12 13 16 18 22 21 27 37 39 38 43 47 46 48 48 46 43 40 38 38
4 5 6 11 11 13 16 15 13 14 11 17 23 24 21 23 23 17 15 6 15 7 3 5 7 12 14 17 20 21 25 36 38 42 45 45 45 49 48 44 43 41 40 37
8 3 5 9 9 10 12 19 15 16 18 20 20 19 16 18 15 18 24 22 19 14 8 7 9 8 10 15 18 21 23 30 37 42 46 47 50 50 50 47 43 41 39 36
13 10 6 9 9 8 17 13 15 14 13 18 24 21 18 17 22 25 24 25 23 14 17 15 13 11 12 12 16 19 22 24 39 43 45 47 50 50 49 45 43 42 39 36
19 12 6 7 9 15 23 13 16 18 20 19 22 21 18 22 25 23 25 23 24 23 20 13 12 10 12 17 18 21 22 25 36 43 47 49 52 52 48 45 42 41 40 37
20 19 11 9 11 9 18 9 13 19 19 16 18 20 19 19 16 13 23 27 23 25 32 23 22 19 17 17 22 26 26 28 41 44 47 50 48 49 49 46 45 42 39 34
9 12 18 17 14 12 28 23 17 12 13 15 22 22 19 18 20 26 29 28 18 15 13 21 25 24 27 23 24 29 31 35 39 47 47 47 47 48 48 49 46 43 38 33
12 10 13 14 15 19 32 22 21 18 24 29 26 28 23 28 31 27 26 26 22 23 19 22 22 27 25 25 26 28 32 34 39 43 48 47 47 47 51 49 46 42 37 33
18 17 11 13 12 21 23 16 17 12 15 25 23 26 26 28 24 23 25 28 31 26 22 20 20 24 25 23 26 30 32 33 37 41 46 47 48 50 52 50 48 42 36 35
18 20 17 18 28 27 29 27 26 24 26 33 28 28 30 23 25 25 22 21 22 22 23 24 22 22 27 29 29 32 33 36 41 44 45 50 54 53 52 50 49 44 42 37
12 15 19 21 27 25 33 31 32 32 29 31 33 30 32 30 32 33 30 30 32 31 33 31 27 26 25 28 29 30 35 39 43 45 47 49 56 57 54 53 49 44 39 38
13 17 12 14 19 16 24 30 25 26 27 27 37 34 34 33 34 36 36 32 30 33 33 32 32 31 28 24 29 33 39 40 47 48 46 49 56 55 56 55 47 40 33 32
Wind_Direction
206 209 207 209 216 227 234 231 228 233 240 225 221 246 225 238 227 227 223 221 218 225 225 222 219 219 215 209 205 204 201 204 203 199 200 200 204 207 204 205 204 207 210 208
208 213 220 218 214 223 228 236 238 235 220 230 234 244 242 240 227 220 214 231 222 219 225 225 223 215 214 212 207 205 205 202 204 204 205 205 205 205 204 203 207 206 211 208
212 209 216 220 225 225 224 230 232 240 208 238 238 253 250 251 243 231 236 228 226 228 221 223 223 219 213 213 209 206 207 206 207 204 201 202 203 202 201 205 205 211 212 214
235 228 211 219 228 225 230 220 232 238 235 223 196 247 242 238 240 236 233 232 232 234 229 227 230 225 216 224 212 211 207 207 210 203 201 202 200 200 206 204 206 207 210 212
212 224 222 213 219 222 234 229 223 236 241 241 233 236 248 245 242 232 231 229 230 229 234 235 233 233 225 227 226 212 209 208 209 209 201 201 202 206 203 201 202 199 210 206
263 238 245 236 228 223 228 231 237 226 232 237 239 238 259 242 245 245 240 238 235 236 230 230 241 237 234 221 230 222 208 207 207 210 207 203 203 200 197 196 196 194 199 200
239 249 260 240 244 241 226 200 205 220 222 223 229 228 242 282 229 240 237 235 237 241 242 235 236 237 233 230 217 224 209 207 206 206 211 202 205 197 198 194 203 205 204 205
208 225 221 221 217 210 217 198 188 193 205 225 220 220 236 227 247 305 207 245 247 245 239 233 236 234 233 230 209 216 209 208 205 204 206 204 204 198 200 203 214 210 205 205
249 243 214 226 229 211 210 221 207 244 226 223 220 223 255 249 236 237 240 236 242 243 241 239 231 232 228 232 214 218 210 207 204 202 202 202 201 199 202 212 216 212 204 205
236 249 214 213 235 254 250 206 209 220 196 219 212 217 236 223 237 241 242 242 239 241 233 241 245 229 229 224 216 210 211 207 203 202 200 200 199 195 204 208 214 202 199 203
341 304 209 164 206 180 143 205 215 192 228 208 231 231 231 229 197 201 205 227 234 226 233 219 225 225 220 221 219 200 204 203 199 201 197 195 196 195 195 203 199 198 198 201
32 312 271 240 185 210 206 218 180 202 180 239 243 257 146 350 215 167 267 229 212 223 217 222 234 192 209 205 202 202 202 198 197 199 198 199 196 193 200 195 192 195 195 192
38 39 320 221 203 176 216 74 359 332 267 214 215 230 248 234 237 188 189 167 111 163 179 180 181 189 195 189 192 197 198 202 205 206 201 192 190 196 191 195 194 191 188 186
166 260 246 295 358 349 319 346 46 12 262 227 225 238 231 189 181 207 99 107 130 133 147 163 184 193 196 194 192 204 202 204 201 202 199 198 200 202 197 188 186 184 185 185
179 232 245 293 288 292 286 297 310 308 306 272 235 241 238 136 351 205 143 145 122 124 164 172 184 186 190 194 192 196 201 202 202 204 203 200 199 195 187 187 182 184 185 186
164 258 306 273 259 276 283 283 270 258 241 266 268 268 278 287 302 287 214 299 301 253 175 218 223 183 187 192 194 195 199 200 202 202 200 197 191 187 187 182 183 184 182 180
278 284 295 271 272 278 283 254 256 252 248 247 261 265 278 292 300 303 310 315 314 324 256 197 232 199 199 197 198 198 200 202 202 202 199 193 187 188 187 188 186 182 180 180
259 253 253 275 310 254 253 259 256 251 241 250 252 262 266 276 285 292 289 286 294 291 288 262 221 231 227 221 209 198 195 195 199 199 196 191 185 188 184 183 181 182 182 180
243 228 249 259 258 283 281 267 235 238 248 227 247 257 261 265 265 264 275 286 267 260 276 273 266 240 224 211 212 197 194 193 189 193 194 189 192 189 185 179 179 180 181 180
229 231 212 230 251 255 269 272 249 240 258 254 260 257 254 260 258 259 270 270 274 254 245 256 255 261 256 219 208 199 194 191 192 193 197 197 185 192 187 184 182 183 185 184
212 216 222 222 239 258 265 267 279 261 256 258 260 267 274 275 275 283 282 270 254 269 262 256 255 262 250 222 202 203 199 196 205 198 194 191 188 185 182 187 186 185 179 180
202 198 219 235 241 244 250 263 250 259 256 257 255 265 274 276 281 284 280 262 255 253 252 251 255 247 247 220 200 205 206 207 196 191 192 190 187 178 186 190 185 181 183 189
232 224 224 209 227 245 267 288 293 285 275 272 270 266 270 268 270 274 266 258 254 251 250 247 257 248 239 219 209 211 208 201 193 187 187 183 181 187 194 189 184 183 187 190
246 246 238 245 252 252 258 260 262 269 269 272 271 271 270 271 273 264 268 264 269 263 259 261 258 251 251 236 220 216 210 201 190 186 184 184 190 195 192 188 187 189 191 190
263 260 246 245 254 256 266 271 277 278 273 267 267 262 262 263 268 266 259 260 261 259 258 256 255 252 248 246 232 215 206 198 188 186 184 185 196 197 190 189 191 193 192 203
266 263 256 261 272 266 268 271 271 275 271 265 268 267 270 267 263 263 263 257 258 253 252 255 255 254 250 250 237 214 200 199 189 185 184 184 191 190 185 187 183 195 201 199